Location: Home
(42.5358°N, 72.7383°W)
Time: 18:59:12
(UTC-05:00)

Explorer 7 - Pass Details

Date: 07 December 2021
Orbit: 483 x 674 km, 50.3° (Epoch: 23 January)

Event Time Altitude Azimuth Distance (km) Brightness Sun altitude
Rises 03:31:41 0° 216° (SW) 2,915 - -38.9°
Reaches altitude 10° 03:34:09 10° 210° (SSW) 1,981 - -38.4°
Maximum altitude 03:38:25 41° 140° (SE) 875 - -37.6°
Exits shadow 03:42:02 12° 73° (ENE) 1,729 10.0 -37.0°
Drops below altitude 10° 03:42:27 10° 71° (ENE) 1,876 10.2 -36.9°
Sets 03:44:43 0° 63° (ENE) 2,741 11.2 -36.5°
